View from above orbital plane
|
View from above satellite
|
Ground track
|
The orbit data is extracted from the following two-line orbital elements,
1 18957U 88019A 21104.68861359 -.00000078 00000-0 94226-5 0 9994
2 18957 65.0439 303.6175 0039762 171.1290 189.0480 13.79688038668465
Epoch (UTC): | 14 April 2021 16:31:36 |
Eccentricity: | 0.0039762 |
inclination: | 65.0439° |
perigee height: | 936 km |
apogee height: | 994 km |
right ascension of ascending node: | 303.6175° |
argument of perigee: | 171.1290° |
revolutions per day: | 13.79688038 |
mean anomaly at epoch: | 189.0480° |
orbit number at epoch: | 66846 |
The dashed part of the orbit path shows where the satellite is in the earth's shadow,
|
|